EA3KZ-1 Weather Reports


time (UTC)temp
F
wind
direction
speed
knots
gust
knots
rain 1hr
in
rain 24hr
in
rain mn
in
humidity
%
barometer
mb
20260831041543 70 236 0.9 1.7 0.00 0.00 0.00 53 1014.2
20260831040541 70 0.0 0.0 0.00 0.00 0.00 53 1014.0
20260831035538 70 248 0.0 1.7 0.00 0.00 0.00 53 1014.0
20260831034535 70 260 1.7 3.5 0.00 0.00 0.00 53 1014.1
20260831033533 70 265 1.7 3.5 0.00 0.00 0.00 53 1014.0
20260831032530 70 0.0 0.0 0.00 0.00 0.00 53 1014.2
20260831031528 70 0.0 0.0 0.00 0.00 0.00 52 1014.1
20260831030525 70 0.0 1.7 0.00 0.00 0.00 52 1014.1
20260831025523 70 261 1.7 3.5 0.00 0.00 0.00 52 1014.0
20260831024520 70 252 1.7 1.7 0.00 0.00 0.00 52 1014.0
20260831023518 70 231 0.9 1.7 0.00 0.00 0.00 53 1014.1
20260831022515 70 248 0.0 1.7 0.00 0.00 0.00 53 1014.0
20260831021612 70 255 1.7 3.5 0.00 0.00 0.00 53 1013.9
20260831020610 70 252 0.9 1.7 0.00 0.00 0.00 53 1014.0
20260831015607 70 251 1.7 3.5 0.00 0.00 0.00 53 1014.1
20260831014605 70 216 0.9 1.7 0.00 0.00 0.00 54 1014.1
20260831013602 71 45 0.9 3.5 0.00 0.00 0.00 50 1013.9
20260831012600 71 0.0 0.0 0.00 0.00 0.00 52 1013.8
20260831011557 71 289 0.9 3.5 0.00 0.00 0.00 52 1013.8
20260831010554 71 270 0.0 1.7 0.00 0.00 0.00 53 1013.8
20260831005552 71 257 0.9 1.7 0.00 0.00 0.00 53 1013.9
20260831004549 71 244 1.7 1.7 0.00 0.00 0.00 53 1013.9
20260831003547 71 242 0.0 1.7 0.00 0.00 0.00 52 1013.8
20260831002544 71 167 0.0 1.7 0.00 0.00 0.00 53 1013.8
20260831001541 71 240 0.9 1.7 0.00 0.00 0.00 57 1013.7
20260831000539 71 0.0 0.0 0.00 0.00 0.00 59 1013.7
20260830235536 71 281 0.9 1.7 0.00 0.00 0.00 58 1013.8
20260830234534 71 135 0.9 1.7 0.00 0.00 0.00 58 1013.8
20260830233531 71 0.0 0.0 0.00 0.00 0.00 62 1014.1
20260830232528 72 237 1.7 3.5 0.00 0.00 0.00 61 1014.1
20260830231526 71 240 0.9 1.7 0.00 0.00 0.00 63 1014.0
20260830230523 71 236 1.7 3.5 0.00 0.00 0.00 67 1014.0
20260830225521 71 233 1.7 3.5 0.00 0.00 0.00 64 1014.1
20260830224518 71 205 1.7 3.5 0.00 0.00 0.00 67 1014.1
20260830223515 72 183 1.7 3.5 0.00 0.00 0.00 69 1014.1
20260830222613 72 177 1.7 3.5 0.00 0.00 0.00 71 1014.1
20260830221610 72 192 2.6 3.5 0.00 0.00 0.00 68 1014.0
20260830220608 73 198 1.7 3.5 0.00 0.00 0.00 66 1013.8
20260830215605 73 207 1.7 3.5 0.00 0.00 0.00 64 1013.9
20260830214603 73 231 2.6 3.5 0.00 0.00 0.00 66 1013.9
20260830213600 74 213 1.7 3.5 0.00 0.00 0.00 65 1013.8
20260830212557 73 224 2.6 5.2 0.00 0.00 0.00 62 1013.7
20260830211555 73 204 1.7 3.5 0.00 0.00 0.00 58 1013.7
20260830210552 74 220 2.6 3.5 0.00 0.00 0.00 58 1013.8
20260830205550 74 202 2.6 3.5 0.00 0.00 0.00 59 1013.8
20260830204547 74 239 2.6 5.2 0.00 0.00 0.00 58 1013.9
20260830203545 75 193 0.9 3.5 0.00 0.00 0.00 57 1013.7
20260830202542 75 198 2.6 6.1 0.00 0.00 0.00 55 1013.7
20260830201539 76 186 1.7 3.5 0.00 0.00 0.00 52 1013.6
20260830200537 76 206 1.7 3.5 0.00 0.00 0.00 50 1013.5
20260830195534 77 223 0.9 1.7 0.00 0.00 0.00 47 1013.6
20260830194531 77 217 0.9 3.5 0.00 0.00 0.00 47 1013.4
20260830193529 78 203 1.7 3.5 0.00 0.00 0.00 46 1013.5
20260830192526 78 206 1.7 3.5 0.00 0.00 0.00 45 1013.3
20260830191524 78 181 2.6 5.2 0.00 0.00 0.00 44 1013.1
20260830190521 79 187 2.6 3.5 0.00 0.00 0.00 43 1013.0
20260830185519 79 138 2.6 6.1 0.00 0.00 0.00 43 1013.0
20260830184516 80 181 2.6 6.1 0.00 0.00 0.00 42 1012.8
20260830183614 80 113 3.5 7.0 0.00 0.00 0.00 40 1012.8
20260830182611 81 138 4.3 7.0 0.00 0.00 0.00 39 1012.7
20260830181609 81 142 2.6 6.1 0.00 0.00 0.00 39 1012.6
20260830180606 81 137 5.2 9.6 0.00 0.00 0.00 38 1012.6
20260830175603 82 156 5.2 12.2 0.00 0.00 0.00 39 1012.6
20260830174601 82 141 4.3 9.6 0.00 0.00 0.00 39 1012.6
20260830173558 83 141 5.2 9.6 0.00 0.00 0.00 40 1012.7
20260830172556 83 155 5.2 9.6 0.00 0.00 0.00 40 1012.5
20260830171553 84 130 3.5 7.8 0.00 0.00 0.00 41 1012.4
20260830170550 84 119 5.2 9.6 0.00 0.00 0.00 41 1012.5
20260830165548 84 115 4.3 11.3 0.00 0.00 0.00 41 1012.5
20260830164545 84 123 7.0 11.3 0.00 0.00 0.00 42 1012.6
20260830163542 85 122 5.2 11.3 0.00 0.00 0.00 41 1012.5
20260830162540 85 150 6.1 9.6 0.00 0.00 0.00 40 1012.5
20260830161537 86 127 7.0 12.2 0.00 0.00 0.00 39 1012.4
20260830160535 86 150 4.3 9.6 0.00 0.00 0.00 38 1012.4
20260830155532 86 116 6.1 12.2 0.00 0.00 0.00 39 1012.3
20260830154530 87 172 4.3 11.3 0.00 0.00 0.00 38 1012.3
20260830153527 87 122 5.2 13.9 0.00 0.00 0.00 38 1012.4
20260830152524 88 112 4.3 11.3 0.00 0.00 0.00 37 1012.5
20260830151522 88 128 4.3 9.6 0.00 0.00 0.00 38 1012.5
20260830150519 89 124 2.6 7.8 0.00 0.00 0.00 37 1012.5
20260830145516 88 109 3.5 7.8 0.00 0.00 0.00 38 1012.5
20260830144614 88 96 4.3 12.2 0.00 0.00 0.00 39 1012.6
20260830143612 88 115 3.5 12.2 0.00 0.00 0.00 38 1012.6
20260830142609 88 97 4.3 11.3 0.00 0.00 0.00 38 1012.8
20260830141606 87 60 4.3 11.3 0.00 0.00 0.00 38 1012.8
20260830140604 88 108 3.5 12.2 0.00 0.00 0.00 38 1013.0
20260830135601 87 107 5.2 11.3 0.00 0.00 0.00 39 1013.0
20260830134559 89 119 3.5 9.6 0.00 0.00 0.00 39 1013.1
20260830133556 87 129 4.3 7.8 0.00 0.00 0.00 42 1013.2
20260830132553 88 127 4.3 9.6 0.00 0.00 0.00 41 1013.2
20260830131551 89 151 2.6 9.6 0.00 0.00 0.00 41 1013.1
20260830130548 88 69 3.5 9.6 0.00 0.00 0.00 43 1013.2
20260830125546 89 150 3.5 12.2 0.00 0.00 0.00 41 1013.2
20260830124543 88 168 3.5 9.6 0.00 0.00 0.00 42 1013.3
20260830123541 88 99 3.5 7.8 0.00 0.00 0.00 42 1013.4
20260830122538 89 198 1.7 6.1 0.00 0.00 0.00 39 1013.7
20260830121535 88 37 2.6 7.0 0.00 0.00 0.00 39 1013.9
20260830120533 89 107 2.6 7.8 0.00 0.00 0.00 38 1013.9
20260830115530 88 81 3.5 7.0 0.00 0.00 0.00 38 1014.0
20260830114528 88 105 1.7 5.2 0.00 0.00 0.00 38 1014.1
20260830113525 89 136 0.9 5.2 0.00 0.00 0.00 37 1014.2
20260830112522 88 117 2.6 11.3 0.00 0.00 0.00 38 1014.2
20260830111520 87 292 1.7 3.5 0.00 0.00 0.00 37 1014.5
20260830110517 87 77 2.6 6.1 0.00 0.00 0.00 38 1014.3
20260830105514 86 18 1.7 5.2 0.00 0.00 0.00 37 1014.5
20260830104612 86 4 2.6 7.8 0.00 0.00 0.00 37 1014.7
20260830103610 86 114 1.7 5.2 0.00 0.00 0.00 39 1014.8
20260830102607 86 64 1.7 6.1 0.00 0.00 0.00 39 1014.7
20260830101604 85 144 1.7 7.0 0.00 0.00 0.00 42 1014.9
20260830100602 85 153 1.7 6.1 0.00 0.00 0.00 43 1015.0
20260830095559 84 106 3.5 7.8 0.00 0.00 0.00 45 1014.9
20260830094557 85 2 1.7 3.5 0.00 0.00 0.00 44 1014.9
20260830093554 83 118 1.7 5.2 0.00 0.00 0.00 46 1015.0
20260830092551 81 124 2.6 5.2 0.00 0.00 0.00 48 1015.0
20260830091549 83 116 0.9 3.5 0.00 0.00 0.00 46 1015.1
20260830090546 83 115 0.9 3.5 0.00 0.00 0.00 48 1015.0
20260830085543 83 135 0.0 1.7 0.00 0.00 0.00 47 1014.9
20260830084541 82 50 0.9 3.5 0.00 0.00 0.00 49 1014.9
20260830083538 82 36 0.9 3.5 0.00 0.00 0.00 49 1014.9
20260830082536 80 102 0.9 3.5 0.00 0.00 0.00 53 1014.8
20260830081533 79 92 0.9 3.5 0.00 0.00 0.00 53 1014.7
20260830080530 79 88 0.9 3.5 0.00 0.00 0.00 54 1014.7
20260830075528 80 68 0.9 1.7 0.00 0.00 0.00 51 1014.7
20260830074525 81 23 0.0 1.7 0.00 0.00 0.00 50 1014.6
20260830073522 80 68 0.0 1.7 0.00 0.00 0.00 51 1014.6
20260830072520 80 0.0 1.7 0.00 0.00 0.00 51 1014.5
20260830071517 78 0.0 0.0 0.00 0.00 0.00 53 1014.5
20260830070515 78 0.0 0.0 0.00 0.00 0.00 53 1014.3
20260830065612 77 0.0 0.0 0.00 0.00 0.00 54 1014.4
20260830064610 75 0.0 0.0 0.00 0.00 0.00 57 1014.4
20260830063607 74 0.0 0.0 0.00 0.00 0.00 59 1014.3
20260830062605 73 0.0 0.0 0.00 0.00 0.00 61 1014.3
20260830061602 73 180 0.0 1.7 0.00 0.00 0.00 60 1014.2
20260830060559 72 270 0.0 1.7 0.00 0.00 0.00 61 1014.2
20260830055557 71 241 0.9 1.7 0.00 0.00 0.00 63 1014.2
20260830054554 70 248 0.9 1.7 0.00 0.00 0.00 64 1014.0
20260830053552 69 265 0.9 1.7 0.00 0.00 0.00 66 1013.8
20260830052549 69 0.0 0.0 0.00 0.00 0.00 67 1014.0
20260830051546 69 248 0.0 1.7 0.00 0.00 0.00 68 1013.8
20260830050544 68 270 0.9 1.7 0.00 0.00 0.00 69 1013.8
20260830045541 68 270 0.0 1.7 0.00 0.00 0.00 70 1013.9
20260830044538 68 248 0.0 1.7 0.00 0.00 0.00 71 1013.8
20260830043536 68 225 0.0 1.7 0.00 0.00 0.00 70 1013.9
20260830042533 68 277 0.0 1.7 0.00 0.00 0.00 72 1013.9